SCP
3 3 5 8 13 17 17 14 13 14 14 14 15 17 18 18 18 19 18 14 9 7 7 9 10 10 7 6 5 4 3 2 2 1 1 1 1 1 1 1 1 1 1
3 4 5 8 12 14 14 13 12 13 13 13 15 16 17 16 15 15 14 11 8 6 7 8 9 9 7 5 4 4 3 2 2 1 1 1 1 1 1 1 1 1 1
5 5 6 8 12 13 11 11 11 11 11 12 14 15 14 13 12 11 10 8 7 6 7 7 8 7 5 4 3 3 2 2 2 2 1 1 1 1 1 1 1 1 1
6 6 6 8 12 12 10 10 11 11 10 11 12 12 11 10 9 9 9 9 8 8 7 7 7 5 4 3 3 3 3 2 2 2 2 1 1 1 1 1 1 1 1
5 6 6 8 11 11 10 10 12 11 9 9 8 8 8 9 10 11 13 13 11 9 7 6 5 5 4 3 3 4 3 3 2 2 2 2 1 1 1 1 1 1 1
4 5 5 6 9 10 9 9 11 10 8 7 6 7 9 11 14 16 16 14 11 8 6 5 5 5 4 4 4 4 3 3 3 2 2 2 2 2 1 1 1 1 1
4 4 4 5 7 9 8 9 10 9 8 6 7 8 11 15 17 18 17 13 9 6 5 4 5 5 5 5 5 4 4 3 3 3 2 2 2 2 2 2 1 1 1
4 4 4 5 6 7 8 8 9 9 8 7 7 8 11 15 18 18 15 11 8 6 5 4 5 5 5 5 5 5 5 4 4 3 3 3 3 3 2 2 2 2 1
4 4 5 6 6 7 7 8 10 11 11 10 9 8 9 12 15 14 11 8 6 5 4 4 4 5 5 5 5 5 5 5 4 4 4 4 3 3 3 3 3 2 2
5 5 6 6 7 7 7 9 12 13 13 12 10 8 7 9 10 9 7 6 5 5 5 5 5 5 5 5 5 4 4 4 3 3 3 3 3 3 3 3 3 3 3
6 6 6 6 7 7 8 11 13 13 12 11 9 7 6 6 6 5 4 4 4 5 5 6 6 6 5 4 4 4 3 3 3 2 2 2 2 2 2 2 2 3 3
6 6 6 6 7 7 8 12 13 12 11 10 8 7 6 5 4 4 4 4 4 4 5 6 7 7 6 5 4 4 3 3 2 2 2 2 2 1 1 1 2 2 2
5 6 6 7 7 7 8 11 14 13 12 11 10 9 7 6 5 4 4 4 4 4 4 5 6 7 7 6 5 5 4 3 3 2 2 2 1 1 1 1 1 1 1
6 6 7 8 8 7 7 9 12 15 15 14 14 12 9 7 6 5 4 4 4 3 4 4 5 6 6 6 6 6 5 4 3 3 2 2 1 1 1 1 1 1 1
5 6 7 8 8 8 7 6 8 13 16 17 16 14 10 8 6 5 5 4 4 3 3 4 4 4 4 5 6 6 6 5 4 3 2 2 1 1 1 1 1 1 1
5 6 7 7 8 7 7 6 7 10 14 17 17 15 11 8 7 6 5 5 4 4 3 3 4 4 4 3 3 5 6 6 5 3 2 2 1 1 1 0 0 0 1
6 6 6 7 8 8 7 7 8 9 12 14 15 14 11 8 7 6 6 6 5 4 4 3 3 3 3 2 2 3 5 6 5 4 3 2 1 1 0 0 0 1 1
7 7 7 8 8 8 7 7 7 8 10 11 12 12 11 9 8 7 7 7 7 5 4 3 3 3 3 2 1 2 4 5 5 5 4 3 2 1 0 1 1 1 1
10 10 9 9 9 8 7 7 7 8 9 10 11 11 10 10 9 9 9 9 8 7 5 4 3 3 2 1 1 1 2 3 4 4 4 3 2 1 0 0 1 1 1
11 11 10 9 9 8 8 8 8 9 9 9 9 9 9 10 10 11 10 10 10 8 6 5 4 4 3 1 0 1 2 2 3 4 4 3 2 1 0 0 0 1 1
11 11 10 10 10 9 8 9 9 9 8 8 8 8 8 9 10 11 11 10 10 9 7 6 6 5 4 2 0 0 1 2 2 3 3 2 1 0 0 0 0 0 0
10 10 10 11 11 10 8 7 8 8 7 7 7 7 8 8 9 9 8 8 9 9 8 8 7 6 5 2 0 0 0 1 1 2 2 2 1 0 0 0 0 0 0
8 9 10 10 10 9 6 5 6 5 5 6 7 7 7 7 7 6 5 5 6 6 7 7 7 6 5 2 1 0 0 0 1 1 1 1 0 0 0 0 0 0 0
6 6 7 8 8 7 5 4 4 4 5 6 7 7 6 6 5 5 3 3 3 3 3 4 4 5 4 2 1 1 0 0 0 1 1 0 0 0 0 0 0 0 1
4 4 4 5 5 5 4 3 4 5 6 7 6 5 4 4 3 3 2 1 1 1 1 1 2 2 2 1 1 1 1 0 0 0 0 1 0 0 0 1 1 1 1
3 3 3 4 5 4 3 3 5 6 8 8 6 4 3 2 2 1 1 0 0 0 0 0 1 1 1 1 0 1 1 0 0 0 1 1 1 0 0 1 1 1 1
Wind_Speed
8 9 8 8 9 10 9 8 8 7 5 4 4 3 3 3 3 3 4 4 3 3 2 2 2 1 1 2 1 1 1 1 1 1 0 1 2 3 3 2 2 3 3
7 7 8 8 9 9 10 9 7 7 6 4 3 3 3 3 3 2 4 4 3 3 3 2 2 2 1 2 1 1 1 1 1 1 1 1 1 2 3 3 3 4 3
8 7 8 8 9 10 10 8 8 7 6 6 4 3 2 2 3 3 3 3 3 3 2 3 2 1 1 1 2 2 2 1 1 1 1 1 1 0 1 2 2 2 2
7 6 6 7 8 10 10 9 8 7 6 6 5 5 4 3 3 3 3 4 4 4 3 3 2 2 1 1 2 2 2 2 2 1 1 1 0 0 1 2 2 3 3
8 7 6 5 7 8 10 10 9 7 6 6 5 4 4 3 3 3 4 4 4 4 4 3 3 2 2 2 2 2 2 2 2 2 1 2 2 2 2 2 2 2 3
8 8 7 6 6 7 9 9 9 8 6 5 5 4 3 3 3 3 4 3 3 3 4 4 3 3 3 3 3 3 3 3 2 2 2 2 2 2 2 2 2 2 2
8 9 9 7 7 7 7 9 9 8 7 6 5 4 3 3 3 3 4 3 3 3 4 4 3 3 3 3 3 3 3 3 3 3 2 2 2 1 1 1 2 1 1
7 8 8 8 7 8 7 7 8 7 7 6 5 4 4 3 3 3 3 3 2 3 3 4 4 4 4 4 3 3 3 3 3 4 3 2 2 1 1 1 1 2 2
5 7 7 6 6 7 7 7 7 6 6 6 5 4 4 3 2 3 2 2 2 3 3 3 3 3 4 4 4 3 3 3 3 3 3 2 2 2 1 1 1 1 2
7 6 6 6 5 6 7 6 6 6 5 4 4 4 4 3 3 3 3 2 2 2 3 3 3 4 4 4 4 3 3 3 3 3 3 2 1 1 1 2 2 2 2
7 7 6 6 5 6 6 6 5 4 4 4 3 3 4 4 3 3 3 2 2 2 2 3 3 3 4 3 3 3 3 4 3 3 3 3 2 1 1 1 1 2 2
6 7 6 6 5 6 5 5 5 4 4 3 2 2 3 4 4 3 3 3 3 3 2 2 3 3 3 3 4 4 4 3 3 3 2 2 2 2 2 1 2 2 2
5 6 6 5 5 5 4 4 4 4 3 4 3 2 2 2 3 3 3 3 2 2 2 2 2 3 3 3 4 4 4 3 3 3 3 3 3 2 2 2 2 2 2
6 6 5 4 4 4 3 4 4 3 3 3 3 3 2 2 2 3 3 3 2 3 3 2 2 3 3 3 3 3 3 3 2 2 2 3 3 3 3 3 3 3 2
6 5 5 4 3 3 2 3 3 3 3 3 3 3 2 1 1 1 2 3 3 3 3 3 2 2 3 2 2 2 3 2 2 2 2 3 3 3 3 3 2 2 2
5 5 4 4 4 3 3 2 2 2 2 2 3 3 3 2 1 1 2 2 2 2 2 2 2 2 2 2 2 2 2 2 3 3 3 3 3 4 5 4 4 3 4
4 4 4 3 3 3 2 3 2 2 2 3 3 3 3 3 3 3 2 2 2 1 1 1 2 2 1 2 2 2 2 3 3 3 2 3 3 3 3 3 5 5 6
2 2 2 3 3 3 3 2 2 2 2 2 3 2 2 2 2 2 1 1 1 1 2 2 2 2 2 3 3 3 3 3 3 3 3 3 2 2 2 3 3 3 4
2 1 2 2 2 3 3 3 2 2 2 2 2 2 2 2 1 1 1 1 2 2 2 2 2 2 2 3 3 2 2 2 3 3 2 2 2 1 0 2 2 3 3
2 2 2 2 2 2 2 2 2 1 1 1 1 1 1 1 1 1 1 1 2 3 3 2 2 1 1 3 3 2 2 2 2 2 2 2 2 1 1 2 2 2 2
3 2 3 2 2 2 2 2 1 1 0 0 1 0 0 1 1 1 1 2 2 2 2 2 1 1 2 4 4 4 1 2 2 1 1 1 3 3 3 3 2 3 3
4 3 3 2 2 3 2 2 1 1 0 1 1 1 1 1 0 0 1 1 1 2 2 2 2 1 2 3 4 4 3 2 2 2 1 1 3 4 4 3 4 4 3
3 3 3 3 3 2 2 2 2 1 1 1 2 1 1 1 0 0 1 2 1 1 1 1 1 1 1 2 4 4 3 3 2 1 1 2 2 3 3 5 4 3 2
3 3 3 3 2 2 3 2 1 1 1 1 1 1 1 0 0 0 1 1 2 2 1 1 1 1 1 1 2 2 2 3 3 3 3 4 4 4 4 3 3 3 2
3 2 3 2 2 2 2 2 1 1 1 1 1 1 1 1 0 1 1 1 1 1 1 2 2 1 1 1 1 2 2 2 2 2 2 2 2 2 2 2 2 2 2
2 2 2 2 2 2 2 2 1 1 1 1 1 1 1 1 1 1 1 3 1 1 1 1 1 1 0 1 1 1 1 2 2 2 3 2 2 2 2 2 2 2 2
Wind_Direction
182 163 159 156 147 146 148 151 156 153 157 158 171 176 173 166 159 150 136 149 161 159 165 150 135 163 142 140 155 144 186 220 232 254 245 236 219 199 185 190 201 204 202
167 159 161 159 153 155 156 156 155 160 165 161 167 171 168 168 153 137 134 154 157 151 168 137 148 142 148 153 152 162 236 247 202 218 240 239 230 242 203 182 199 206 201
168 161 161 166 161 157 158 160 160 163 170 165 167 168 166 175 155 148 150 157 154 156 153 154 162 165 181 154 188 192 214 237 250 233 224 258 241 209 222 214 211 191 205
152 149 173 170 163 160 159 156 155 159 166 168 173 178 177 178 161 152 148 158 161 163 165 163 175 188 184 169 212 184 214 225 246 241 235 229 242 247 247 238 222 213 214
152 160 169 172 164 160 158 156 154 157 163 170 176 186 183 169 155 154 149 164 165 173 174 170 179 184 200 194 212 210 220 234 242 238 232 237 239 222 229 250 240 237 220
162 161 162 153 152 154 151 149 153 158 164 174 174 187 182 160 158 169 162 174 172 175 174 180 184 189 204 200 208 216 220 235 253 257 250 238 232 225 224 236 245 245 240
163 163 159 146 152 150 149 147 153 159 163 171 174 179 183 177 176 183 172 180 178 173 180 192 186 197 208 209 208 215 223 227 240 250 252 246 244 240 240 240 255 250 257
163 151 142 141 151 143 139 142 148 154 161 169 172 172 180 192 182 188 193 183 179 178 182 194 195 200 205 213 203 221 225 222 230 238 236 247 249 241 222 224 252 268 265
152 138 134 134 134 138 137 142 146 149 159 167 167 173 177 187 185 183 197 190 202 195 181 195 202 208 206 210 205 218 217 218 220 229 225 232 236 235 229 221 237 255 270
143 134 130 128 132 133 128 127 140 154 162 170 178 168 163 169 190 188 187 200 205 218 186 197 202 212 212 208 210 219 211 207 212 213 218 225 233 235 228 217 222 224 243
141 133 128 124 126 128 130 132 136 150 161 168 163 160 171 177 185 188 186 190 202 211 205 203 204 208 211 206 211 222 206 204 215 223 217 216 218 225 244 250 237 234 228
138 133 129 129 132 130 134 141 150 162 162 156 151 172 177 180 186 189 182 183 192 208 205 205 212 211 202 200 210 220 219 205 213 219 218 224 224 226 243 249 245 237 230
129 127 126 131 131 126 133 146 156 157 160 157 161 171 179 179 184 179 179 187 192 208 218 217 223 218 209 212 216 215 219 216 218 215 214 220 222 225 234 234 248 245 244
119 116 116 118 121 123 133 149 158 161 162 160 163 165 175 174 177 187 183 187 189 210 221 220 229 223 219 215 217 219 214 219 223 213 209 216 215 217 228 235 236 242 245
121 123 128 124 127 130 139 146 156 162 161 160 167 169 158 161 183 186 192 190 199 216 218 219 223 222 221 221 212 226 223 220 234 229 221 213 211 206 211 233 233 238 240
134 138 135 137 143 152 165 159 156 161 159 163 176 166 161 168 198 215 199 196 209 221 215 219 237 238 240 187 191 217 242 228 231 238 235 214 212 203 204 220 229 232 234
134 144 146 145 152 162 165 171 165 167 169 183 181 170 171 183 203 223 216 210 214 219 226 215 221 225 216 177 186 220 237 235 232 235 240 251 241 206 207 220 227 239 244
75 107 136 146 155 164 154 155 160 179 195 189 179 169 180 191 210 223 238 224 213 221 230 228 224 219 218 191 192 217 226 240 236 227 226 233 252 240 233 231 228 232 240
59 71 119 144 148 151 149 154 166 188 195 176 155 173 199 194 207 235 238 235 224 227 226 225 221 220 203 181 187 200 234 233 242 241 229 211 203 230 237 258 253 252 253
69 68 117 123 126 128 136 150 158 165 196 200 160 174 194 200 224 241 248 258 245 238 231 230 226 215 167 167 177 186 234 250 250 237 195 168 169 170 180 218 243 258 272
69 75 101 112 115 117 125 138 137 139 230 277 103 106 306 230 214 246 249 248 255 250 235 224 220 210 189 164 168 174 218 268 278 262 219 177 174 193 210 216 228 246 260
67 70 89 100 102 117 131 138 136 135 141 117 92 74 40 308 343 306 254 246 236 248 232 216 215 210 176 155 169 174 205 262 279 279 297 180 201 208 220 223 235 249 258
68 72 77 93 98 104 108 124 112 102 92 82 86 83 71 26 359 314 297 273 244 242 247 228 224 234 173 150 160 180 217 256 266 303 320 295 252 225 224 222 235 234 233
79 73 79 80 88 95 95 94 98 88 90 99 104 130 140 134 335 296 282 324 323 306 295 299 280 253 184 154 161 199 218 228 245 257 261 252 248 232 238 230 225 220 226
81 80 81 82 83 84 86 100 104 110 113 121 152 186 175 145 77 33 359 358 22 339 324 323 316 302 262 248 234 217 221 229 235 252 257 250 230 220 228 225 209 211 225
74 82 83 87 89 101 96 90 95 114 133 188 217 224 197 177 169 156 45 34 63 95 85 340 302 330 345 214 215 209 213 214 215 223 245 248 248 248 242 240 236 225 225